FENGYUN 1C DEB

Satellite information

Favourite Embed

Satellite Type and Status

DEBRISIN ORBIT

Key statistics

Satellite FENGYUN 1C DEB at a glance.

Uptime

9661

Days in orbit

Revolutions

≈ 14.1

Per day

Orbit

SSO

Sun Synchronous Orbit

Inclination

98.7

Latest

Satellite identification and parameters

Extended collection of information and parameters for FENGYUN 1C DEB.

Object identification

Identified? True

Debris? True

Object name: FENGYUN 1C DEB

International designator: 1999-025BGC

Object number (NORAD): 31082

Object ID (CCSDS): 31082

Country: PEOPLES REPUBLIC OF CHINA (PRC)

Current information (Y/N): Y

RCS size: SMALL

Orbital parameters

Period: 101.92 minutes

Inclination: 98.6775 deg

SMA: 7227.683 km

Apoapsis: 900.617 km

Periapsis: 798.479 km

RAAN: 272.8288 deg

Eccentricy: 0.00706575

Argument of periapsis: 79.7949 deg

Mean anomaly: 281.1183 deg

Mean motion: 14.1287609 rev/day

Mean motion (dot): 0.00001242 rev/day2

B* drag term: 0.00067378667 1/REarth

Two-line elements (TLE)

Creation date: Sept. 20, 2025, 8:33 a.m.

Reference frame: TEME

Reference center: EARTH

Epoch: Sept. 19, 2025, 6:56 p.m. UTC

TLE line 0: 0 FENGYUN 1C DEB

TLE line 1: 1 31082U 99025BGC 25262.78893709 .00001242 00000-0 67379-3 0 9991

TLE line 2: 2 31082 98.6775 272.8288 0070657 79.7949 281.1183 14.12876090951248

Live tracking on map

Real-time ground track for satellite FENGYUN 1C DEB.

In-orbit conjunctions

A list of the most updated potential collisions computed for object FENGYUN 1C DEB.

Target Orbit TCA Probability of collision Miss distance Type
FENGYUN 1C DEB SSO 2024-09-28 05:58:31 0.0005496907 175.0 (m) DEBRIS

Associated space launch

Chinese polar orbiting meteorological satellite

FENGYUN 1C DEB was lifted into orbit during the mission ‘Long March 4B | Feng Yun 1C’, on board a Long March 4B space rocket.

The launch took place on May 10, 1999, 1:33 a.m. from Launch Complex 7.

For more information about the launch, click the button.

Launch to space Long March 4B | Feng Yun 1C
Long March 4B | Feng Yun 1C

Agency: N/A

Status: Launch Successful

Launch date: May 10, 1999, 1:33 a.m. UTC

Rocket: Long March 4B

Launch pad: Launch Complex 7

Location: Taiyuan Satellite Launch Center, People's Republic of China

...

Latest news about this satellite

There are no fresh news available about this satellite. Check back as we update our databases every day.


Newsletter sign-up

Weekly statistics, charts and insights to help you stay on top of the space industry.